Weather History for KCDW - November, 2013

Change the Weather History Date:

Tuesday, November 5, 2013

  Actual Average Record
Temperature  
Mean Temperature 42 °F -  
Max Temperature 52 °F 59 °F 77 °F (1975)
Min Temperature 32 °F 37 °F 20 °F (1951)
Degree Days  
Heating Degree Days 23    
Moisture  
Dew Point 34 °F    
Average Humidity 70    
Maximum Humidity 85    
Minimum Humidity 47    
Precipitation  
Precipitation 0.00 in - - ()
Sea Level Pressure  
Sea Level Pressure 30.62 in    
Wind  
Wind Speed 2 mph (SE)    
Max Wind Speed 7 mph    
Max Gust Speed -    
Visibility 10 miles    
Events      
Averages and records for this station are not official NWS values.
T = Trace of Precipitation, MM = Missing Value Source: NWS Daily Summary

Daily Weather History Graph

Daily Weather History Graph

Search for Another Location

Airport or City:

Trip Planner

Search our weather history database for the weather conditions in past years. The results will help you decide how hot, cold, wet, or windy it might be!

Date:

Astronomy

Nov. 05, 2013 Rise Set
Actual Time 6:32 AM EST 4:48 PM EST
Civil Twilight 6:03 AM EST 5:16 PM EST
Nautical Twilight 5:31 AM EST 5:49 PM EST
Astronomical Twilight 4:59 AM EST 6:21 PM EST
Moon 8:45 AM EST (11/5) 6:46 PM EST (11/5)
Length of Visible Light 11h 13m
Length of Day
10h 15m
Waxing Crescent, 6% of the Moon is Illuminated
Nov 5
Waxing Crescent
Nov 10
First Quarter
Nov 17
Full
Nov 25
Last Quarter
Dec 2
New

Hourly Weather History & Observations

Time (EST) Temp. Windchill Dew Point Humidity Pressure Visibility Wind Dir Wind Speed Gust Speed Precip Events Conditions
12:53 AM 32.0 °F - 25.0 °F 75% 30.69 in 10.0 mi Calm Calm - N/A   Clear
1:53 AM 33.1 °F - 26.1 °F 75% 30.67 in 10.0 mi Calm Calm - N/A   Scattered Clouds
2:53 AM 35.1 °F 31.0 °F 25.0 °F 67% 30.65 in 10.0 mi NE 4.6 mph - N/A   Clear
3:53 AM 32.0 °F 28.7 °F 26.1 °F 79% 30.66 in 10.0 mi ENE 3.5 mph - N/A   Clear
4:53 AM 33.1 °F - 27.0 °F 78% 30.67 in 10.0 mi Calm Calm - N/A   Clear
5:53 AM 32.0 °F - 26.1 °F 79% 30.68 in 10.0 mi Calm Calm - N/A   Clear
6:53 AM 32.0 °F - 27.0 °F 82% 30.68 in 10.0 mi Calm Calm - N/A   Clear
7:53 AM 39.0 °F - 30.0 °F 70% 30.67 in 10.0 mi Calm Calm - N/A   Clear
8:53 AM 42.1 °F - 30.9 °F 65% 30.68 in 10.0 mi Calm Calm - N/A   Clear
9:53 AM 46.0 °F 43.9 °F 30.9 °F 56% 30.67 in 10.0 mi Variable 4.6 mph - N/A   Partly Cloudy
10:53 AM 50.0 °F - 32.0 °F 50% 30.67 in 10.0 mi ESE 4.6 mph - N/A   Mostly Cloudy
11:53 AM 52.0 °F - 32.0 °F 47% 30.64 in 10.0 mi Variable 4.6 mph - N/A   Overcast
12:53 PM 52.0 °F - 37.9 °F 59% 30.62 in 10.0 mi Calm Calm - N/A   Overcast
1:53 PM 52.0 °F - 37.0 °F 57% 30.61 in 10.0 mi South 3.5 mph - N/A   Overcast
2:53 PM 52.0 °F - 37.9 °F 59% 30.58 in 10.0 mi SSE 6.9 mph - N/A   Overcast
3:53 PM 52.0 °F - 37.9 °F 59% 30.57 in 10.0 mi South 5.8 mph - N/A   Clear
4:53 PM 51.1 °F - 37.9 °F 61% 30.56 in 10.0 mi South 6.9 mph - N/A   Clear
5:53 PM 50.0 °F - 39.0 °F 66% 30.58 in 10.0 mi Calm Calm - N/A   Clear
6:53 PM 48.9 °F - 39.9 °F 71% 30.58 in 10.0 mi Calm Calm - N/A   Mostly Cloudy
7:53 PM 46.9 °F - 39.9 °F 77% 30.58 in 10.0 mi Calm Calm - N/A   Clear
8:53 PM 45.0 °F - 39.9 °F 82% 30.56 in 10.0 mi Calm Calm - N/A   Clear
9:53 PM 44.1 °F - 39.9 °F 85% 30.55 in 10.0 mi Calm Calm - N/A   Scattered Clouds
10:53 PM 44.1 °F - 39.9 °F 85% 30.54 in 10.0 mi Calm Calm - N/A   Clear
11:53 PM 44.1 °F 42.5 °F 39.9 °F 85% 30.53 in 10.0 mi WNW 3.5 mph - N/A   Clear